This is the latest recevied weather packets stored in our database for station/object KC9GSD. If no packets are shown the sender has not sent any weather packets the latest 10 day(s).
| Time | Temp. | Humidity | Pressure | Rain* | Wind** | Luminosity | Snow |
|---|---|---|---|---|---|---|---|
| 1777949462 | 16.11° C | 62% | 1013.8 hPa | 0 mm | - | 0 W/m² | - |
| 1777949159 | 16.11° C | 63% | 1013.8 hPa | 0 mm | - | 0 W/m² | - |
| 1777948856 | 16.11° C | 65% | 1013.8 hPa | 0 mm | - | 0 W/m² | - |
| 1777948553 | 15.56° C | 65% | 1013.7 hPa | 0 mm | - | 0 W/m² | - |
| 1777948251 | 15.56° C | 64% | 1013.7 hPa | 0 mm | - | 0 W/m² | - |
| 1777947948 | 16.11° C | 65% | 1013.4 hPa | 0 mm | - | 0 W/m² | - |
| 1777947645 | 16.11° C | 63% | 1013.4 hPa | 0 mm | - | 0 W/m² | - |
| 1777947342 | 16.11° C | 63% | 1013.3 hPa | 0 mm | - | 0 W/m² | - |
| 1777947039 | 16.11° C | 65% | 1013.4 hPa | 0 mm | - | 0 W/m² | - |
| 1777946738 | 16.67° C | 63% | 1013.5 hPa | 0 mm | - | 0 W/m² | - |
| 1777946436 | 16.67° C | 63% | 1013.3 hPa | 0 mm | - | 0 W/m² | - |
| 1777946133 | 16.67° C | 61% | 1013.4 hPa | 0 mm | - | 0 W/m² | - |
| 1777945829 | 16.67° C | 62% | 1013.2 hPa | 0 mm | - | 0 W/m² | - |
| 1777945526 | 16.67° C | 64% | 1013.2 hPa | 0 mm | - | 0 W/m² | - |
| 1777945224 | 16.67° C | 62% | 1013.1 hPa | 0 mm | - | 0 W/m² | - |
| 1777944921 | 16.67° C | 64% | 1013 hPa | 0 mm | - | 0 W/m² | - |
| 1777944618 | 16.67° C | 61% | 1013.2 hPa | 0 mm | - | 0 W/m² | - |
| 1777944316 | 16.67° C | 60% | 1013 hPa | 0 mm | - | 0 W/m² | - |
| 1777944013 | 17.22° C | 62% | 1013 hPa | 0 mm | - | 0 W/m² | - |
| 1777943708 | 16.67° C | 63% | 1013.1 hPa | 0 mm | - | 0 W/m² | - |
| 1777943405 | 16.67° C | 66% | 1012.9 hPa | 0 mm | - | 0 W/m² | - |
| 1777943101 | 17.22° C | 63% | 1013 hPa | 0 mm | - | 0 W/m² | - |
| 1777942797 | 17.22° C | 63% | 1012.8 hPa | 0 mm | - | 0 W/m² | - |
| 1777942494 | 17.22° C | 62% | 1012.9 hPa | 0 mm | - | 0 W/m² | - |
| 1777942192 | 17.78° C | 61% | 1012.8 hPa | 0 mm | - | 0 W/m² | - |
* Rain latest hour (hover to see other rain measurements)
** Current wind speed in m/s (hover to see current wind gust speed)